EHI
15 12 8 6 5 4 4 3 4 5 6 6 6 7 8 9 8 5 3 1 0 0 0 0 0 0 0 0 0 0 0 0 0 0 0 0 0 0 0 0 0 0 0
15 13 10 7 6 4 3 3 2 3 4 6 7 7 9 9 9 6 3 1 0 0 0 0 0 0 0 0 0 0 0 0 0 0 0 0 0 0 0 0 0 0 0
16 15 14 11 7 4 2 1 1 1 3 6 7 8 9 10 9 6 2 0 0 0 0 0 0 0 0 0 0 0 0 0 0 0 0 0 0 0 0 0 0 0 0
19 17 15 12 7 2 0 0 0 1 3 5 7 8 9 9 8 6 3 1 1 0 0 0 0 0 0 0 0 0 0 0 0 0 0 0 0 0 0 0 0 0 0
21 18 14 11 8 4 1 0 0 0 2 4 6 6 7 7 7 5 3 2 1 0 0 0 0 0 0 0 0 0 0 0 0 0 0 0 0 0 0 0 0 0 0
20 17 12 9 8 6 5 3 1 0 1 3 4 4 5 5 5 3 2 1 1 0 0 0 0 0 0 0 0 0 0 0 0 0 0 0 0 0 0 0 0 0 0
20 16 12 10 10 10 10 8 5 2 1 2 3 3 4 3 2 1 1 0 0 0 0 0 0 0 0 0 0 0 0 0 0 0 0 0 0 0 0 0 0 0 0
20 18 16 15 14 14 14 12 8 4 1 2 4 4 3 1 0 0 0 0 0 0 0 1 1 0 0 0 0 0 0 0 0 0 0 0 0 0 0 0 0 0 0
23 22 22 20 17 17 18 16 11 6 4 4 6 6 4 1 0 0 0 0 0 0 0 1 1 0 0 0 0 0 0 0 0 0 0 0 0 0 0 0 0 0 0
26 25 24 22 20 20 19 17 14 9 6 7 7 7 5 3 1 0 0 0 0 0 0 1 1 0 0 0 0 0 0 0 0 0 0 0 0 0 0 0 0 0 0
26 24 22 21 21 20 19 17 14 10 9 8 7 6 6 4 1 0 0 0 0 0 1 2 1 0 0 0 0 0 0 0 0 0 0 0 0 0 0 0 0 0 0
24 23 21 19 19 19 18 15 12 10 8 7 6 5 4 3 1 0 0 0 0 1 2 3 2 0 0 0 0 0 0 0 0 0 0 0 0 0 0 0 0 0 0
23 22 20 17 16 17 16 13 10 8 7 7 6 5 4 3 2 1 0 0 0 1 2 2 1 0 0 0 0 0 0 0 0 0 0 0 0 0 0 0 0 0 0
21 20 18 15 14 15 14 12 9 8 8 8 8 6 4 3 2 1 0 0 0 0 1 1 0 0 0 0 0 0 0 0 0 0 0 0 0 0 0 0 0 0 0
16 15 14 13 12 12 12 10 9 9 9 9 9 7 4 3 2 1 0 0 0 0 0 0 1 1 1 1 0 1 1 1 1 0 0 0 0 0 0 0 0 0 0
13 12 11 11 10 10 10 10 8 8 7 6 6 5 3 2 1 0 0 0 0 0 0 1 2 2 2 2 2 2 2 2 1 0 0 0 0 0 0 0 0 0 0
10 10 10 10 10 10 10 10 8 5 4 2 2 1 1 1 0 0 0 0 0 0 1 2 3 3 3 2 2 2 3 3 1 0 0 0 0 0 0 0 0 0 0
9 9 9 9 9 9 10 10 8 5 3 1 1 0 0 0 0 0 0 0 0 0 1 2 3 3 3 1 1 1 3 2 1 0 0 0 0 0 0 0 0 0 0
8 7 7 8 7 7 8 9 8 7 5 3 2 1 0 0 0 0 0 0 0 0 1 1 1 2 2 1 0 1 2 2 1 0 0 0 0 0 0 0 0 0 0
6 5 5 5 5 5 6 7 7 6 4 3 3 2 1 0 0 0 0 0 0 0 0 0 0 1 1 0 0 1 2 2 1 0 0 0 0 0 0 0 0 0 0
4 3 3 3 3 4 4 4 5 5 3 2 2 2 1 0 0 0 0 0 0 0 0 0 0 0 0 0 0 0 1 2 1 0 0 0 0 0 0 0 0 0 0
3 3 3 3 3 3 3 3 3 3 2 1 1 1 0 0 0 0 0 0 0 0 0 0 0 0 0 0 0 0 1 1 1 0 0 0 0 0 0 0 0 0 0
3 3 3 3 3 3 3 3 3 2 1 0 0 0 0 0 0 0 0 0 0 0 0 0 0 0 0 0 0 0 1 1 0 0 0 0 0 0 0 0 0 0 0
3 3 3 3 3 3 3 3 3 2 1 0 0 0 0 0 0 0 0 0 0 0 0 0 0 0 0 0 0 0 0 0 0 0 0 0 0 0 0 0 0 0 0
3 3 3 3 3 3 3 3 2 2 1 0 0 0 0 0 0 0 0 0 0 0 0 0 0 0 0 1 0 0 0 0 0 0 0 0 0 0 0 0 0 0 0
3 3 3 3 3 3 3 2 1 1 0 0 0 0 0 0 0 0 0 0 0 0 0 0 0 0 0 1 0 0 0 0 0 0 0 0 0 0 0 0 0 0 0
Wind_Speed
5 4 4 3 3 3 2 2 2 1 2 2 2 1 1 1 1 1 1 1 2 2 2 2 2 2 2 2 2 1 1 1 1 2 1 1 1 0 0 0 1 1 2
6 5 4 3 3 3 2 1 2 2 2 2 2 2 2 1 1 1 1 1 1 1 1 2 2 2 2 2 2 2 1 0 1 1 1 1 1 1 0 0 1 1 1
6 6 5 4 3 3 2 2 2 2 2 2 2 2 2 1 1 1 1 1 1 0 0 1 1 2 2 2 2 2 1 2 1 0 1 1 1 1 1 1 1 1 1
7 6 6 5 4 3 3 2 2 2 2 2 2 2 2 2 2 2 2 1 1 1 1 1 0 0 1 1 1 1 1 1 1 1 1 1 1 1 1 0 1 1 1
7 7 6 5 4 4 3 2 2 2 3 2 2 2 2 2 1 2 1 1 1 2 2 1 0 1 1 1 1 0 1 1 1 1 1 1 1 1 1 1 1 1 1
7 7 6 5 5 4 4 3 3 2 2 2 2 2 1 1 1 2 2 1 1 1 1 2 1 2 3 3 3 1 1 1 0 1 1 1 2 2 1 1 1 0 1
7 6 6 6 5 5 5 4 3 3 3 2 2 2 2 1 2 1 1 1 0 0 0 1 1 2 2 2 3 3 3 1 2 2 2 3 2 2 1 1 1 1 2
7 7 7 7 6 5 5 4 4 3 3 3 3 2 2 2 3 2 1 1 0 0 0 1 0 1 1 1 1 2 3 3 2 1 2 4 3 3 3 3 3 2 1
8 7 7 8 8 7 6 5 4 3 3 3 3 3 2 3 4 4 2 1 0 1 0 0 1 0 1 1 2 2 3 3 3 3 3 3 4 3 2 1 0 1 0
8 8 7 8 8 8 7 6 4 4 4 3 3 3 3 3 4 4 4 2 1 0 1 1 1 1 1 1 1 0 2 3 3 4 5 5 3 3 1 2 2 1 1
6 6 6 6 7 7 6 5 5 4 3 3 3 3 3 4 4 5 5 3 3 1 1 1 2 2 1 1 1 2 4 3 2 2 3 3 3 2 2 1 2 3 2
6 6 6 5 5 5 5 4 4 5 4 3 3 2 2 2 3 4 5 5 4 3 2 2 2 2 2 2 1 2 3 2 1 1 2 2 2 2 2 2 2 2 3
6 6 5 5 4 4 5 5 4 3 3 3 3 3 2 2 2 4 5 5 5 3 3 3 3 2 2 2 2 3 2 0 0 1 2 2 2 2 2 2 2 1 1
6 6 5 5 4 3 3 3 4 4 4 4 4 4 3 2 2 2 2 2 2 2 2 2 2 2 2 2 3 2 1 1 2 2 2 2 2 1 1 1 1 1 1
5 4 4 4 4 4 3 3 4 4 5 6 5 4 4 4 5 5 4 3 3 3 2 0 0 1 1 1 2 2 1 1 1 1 2 2 2 1 2 1 0 0 0
4 4 3 3 3 3 3 1 1 2 4 6 6 5 4 5 5 5 5 4 5 4 3 1 2 2 2 3 2 2 2 2 2 2 2 2 2 2 2 1 1 1 1
5 4 3 4 4 4 3 3 1 2 2 1 3 4 4 4 4 3 3 3 3 4 2 2 3 3 3 3 2 2 2 3 2 2 2 2 2 2 2 2 1 1 2
4 4 4 4 4 4 4 3 3 3 1 1 1 2 3 3 3 3 2 2 1 1 2 3 3 3 3 3 3 3 3 2 2 2 2 2 2 2 2 2 2 2 2
3 2 3 3 3 3 3 3 3 3 3 2 1 1 2 2 1 2 3 2 2 3 3 3 3 3 3 3 3 3 3 2 2 2 2 2 2 2 2 3 3 4 3
3 3 3 3 3 3 3 3 3 2 2 2 2 2 1 1 1 1 2 2 2 3 3 3 3 3 3 3 3 2 2 2 2 2 2 2 2 3 3 4 3 3 3
2 3 3 2 2 3 3 3 3 3 3 2 2 3 4 2 3 3 3 3 3 4 3 3 3 3 3 2 2 2 2 2 2 2 2 2 2 2 3 3 3 3 3
2 2 2 2 2 2 2 2 2 2 2 2 1 1 3 2 2 2 3 3 3 3 3 2 2 2 2 2 2 2 2 2 2 2 2 2 2 2 2 3 3 3 3
2 2 2 2 2 2 1 1 1 1 2 1 1 1 2 2 2 2 3 3 2 2 2 2 2 2 2 2 2 2 2 3 3 2 2 2 2 2 2 2 3 3 3
2 2 2 2 1 1 1 1 1 1 1 1 1 2 2 2 2 3 3 2 2 2 2 2 2 3 3 2 2 2 2 2 2 2 3 3 2 2 2 2 3 3 2
1 1 2 2 1 1 1 1 1 1 1 1 1 2 2 2 2 2 2 2 2 2 2 2 2 2 3 3 2 2 2 3 3 2 3 3 3 3 2 3 3 3 3
2 2 1 1 1 1 1 1 1 1 1 1 1 1 2 2 2 2 2 2 2 2 2 2 2 2 2 2 2 1 1 2 2 2 2 2 2 2 2 2 4 4 3
Wind_Direction
153 151 143 141 141 136 138 149 144 126 116 122 134 120 100 74 64 64 37 43 54 35 25 37 12 1 357 350 359 8 8 146 216 276 282 328 6 305 6 267 232 220 229
158 150 148 145 143 141 138 139 124 118 119 119 118 110 100 85 75 84 57 50 66 51 27 46 15 14 9 356 2 359 344 293 192 272 305 320 296 259 229 252 264 253 235
156 153 153 152 152 160 157 142 130 132 123 111 108 110 101 84 81 72 83 62 64 59 82 80 358 19 4 348 356 356 341 358 36 129 308 322 311 336 13 331 323 311 256
158 157 160 168 173 172 160 148 147 144 132 126 124 126 121 104 93 79 71 55 33 20 43 101 268 350 300 316 349 348 2 15 21 33 359 343 327 326 53 342 326 320 289
162 165 172 174 170 166 157 154 143 141 145 144 131 123 123 119 107 92 82 74 51 22 9 4 325 33 20 7 17 335 41 37 11 4 340 355 341 355 326 285 259 281 287
166 174 174 169 164 163 161 154 144 148 147 137 138 137 130 135 123 114 110 95 65 48 356 344 355 34 13 9 12 20 123 157 236 264 265 267 264 255 272 308 277 46 298
172 173 172 172 168 171 165 154 164 171 163 159 164 158 170 204 185 157 125 124 130 218 263 349 5 25 27 18 358 6 8 337 208 201 234 249 245 238 233 264 274 234 235
175 177 176 176 178 174 167 171 180 180 178 181 185 186 185 213 196 183 150 112 65 331 196 178 164 344 351 16 24 19 357 349 330 239 232 253 253 244 216 214 220 245 289
180 183 182 180 178 177 179 185 187 184 185 190 190 187 187 225 213 199 170 121 85 310 286 151 163 216 317 18 64 24 348 331 340 356 321 299 290 283 231 138 121 131 285
190 188 185 182 180 184 188 186 186 184 192 189 195 199 196 211 210 198 178 150 151 275 316 272 232 205 337 18 93 38 312 300 322 338 341 338 332 321 269 187 184 182 198
185 177 179 183 184 186 184 182 176 180 183 189 198 215 211 210 214 205 187 174 183 200 241 265 266 261 281 289 223 220 247 273 302 307 317 324 330 329 318 243 203 189 194
172 173 178 182 189 182 174 176 174 173 178 187 188 216 235 227 217 211 201 199 194 190 227 245 254 255 264 274 262 257 273 288 315 331 324 312 308 301 293 276 238 221 216
165 173 177 179 183 172 173 178 176 180 184 189 188 206 235 236 230 217 209 208 208 206 227 236 246 267 295 297 287 288 298 240 286 291 281 276 266 268 295 316 328 307 297
166 174 172 172 176 174 174 174 180 187 190 193 197 207 218 224 228 222 219 213 216 224 240 255 268 280 289 285 301 313 290 216 203 241 261 271 287 312 310 304 318 340 357
163 168 169 173 173 171 174 183 188 202 196 191 201 200 199 219 229 215 201 207 207 209 179 122 329 314 309 307 308 301 301 301 254 249 254 277 282 278 278 278 266 322 238
158 165 166 162 161 161 159 140 338 223 218 207 206 201 210 216 206 201 211 217 213 186 149 185 234 235 240 247 257 280 290 276 255 250 253 253 251 250 264 275 247 224 241
165 171 169 164 165 167 168 165 163 7 26 192 199 196 203 205 202 202 210 220 207 167 159 209 227 235 239 239 239 245 263 271 261 244 245 247 245 244 242 252 250 243 249
166 175 172 172 171 172 174 176 174 169 173 296 283 222 209 208 211 205 183 125 136 181 210 225 232 234 234 236 240 242 251 265 259 252 250 251 241 234 237 241 235 234 241
158 170 175 168 164 167 172 173 177 181 181 187 199 282 241 224 230 208 163 167 198 219 232 240 240 239 240 243 244 243 245 248 245 242 248 245 239 231 243 247 240 242 232
161 166 164 164 159 164 172 177 184 189 192 194 203 216 199 163 186 206 203 210 213 226 230 236 242 242 241 239 241 243 243 246 250 250 255 249 240 231 236 243 240 233 230
155 161 163 162 173 179 176 183 187 189 192 200 218 221 193 195 207 213 215 220 224 228 231 237 245 248 245 241 235 236 237 247 247 248 254 261 264 256 251 247 243 233 229
150 157 161 162 167 161 161 169 169 172 179 191 222 212 200 210 210 216 224 231 234 235 227 224 240 243 233 228 227 227 237 254 258 254 254 258 259 267 270 266 254 234 223
136 137 138 136 138 143 143 152 169 178 181 181 193 192 201 221 232 229 233 240 244 245 238 220 222 241 248 240 230 216 221 237 247 255 260 262 265 266 271 272 265 240 228
142 147 148 140 127 129 140 177 191 197 192 189 200 205 217 222 232 240 239 240 243 243 241 232 229 230 233 242 247 237 228 231 239 249 251 244 245 255 261 270 270 255 243
121 130 133 134 141 157 173 195 206 208 202 207 212 217 232 236 245 252 247 235 230 236 244 249 247 241 230 225 234 253 245 234 235 240 236 226 234 241 251 260 262 265 261
82 103 117 128 158 171 189 220 218 208 201 208 214 218 219 225 242 246 245 237 236 247 256 262 261 253 244 239 239 248 262 253 255 258 240 216 223 248 259 257 259 257 253